STARLINK-1041 (44746 NORAD) Tracking and Keplerian Element Data

This shows tracking and keplerian element data for the satellite.

Feedback or suggestion? Click here.




ElementValue
Catalog44746
NameSTARLINK-1041
Epoch Orbit2090
Epoch Day87.91667824
Epoch Year2020
RAAN260.5737
Inclination53.0007
Eccentricity0.0001891
Argument of Perigee85.5603
Mean Anonmoly32.4537
Mean Motion15.05556563
Decay Rate0.00061144
L11 44746U 19074AK 20087.91667824 .00061144 00000-0 41820-2 0 9999
L22 44746 53.0007 260.5737 0001891 85.5603 32.4537 15.05556563 20904

Live tracking and technical data element details for STARLINK-1041 (NORAD 44746). STARLINK-1041 can be tracked NOW for your location showing map with azimuth and elevation plus other details from your city location.

Track the satellite on the map from your city or location and see movement details for azimuth, elevation, latitude, longitude, range, height, and movement on the map or in text.







IsCatalogInMostPopularTable: catalog: 44746, numindb: 50
Update: records affected: 1



GetName: 44746 STARLINK-1041

Hit Count: updated at: Sat, 28 Mar 2020 20:39:57 GMT